Fort Nelson, British Columbia

9:01 PM PDT on May 28, 2017 (GMT -0700)
Fort Nelson

Weather History for CYYE - January, 2014

Change the Weather History Date:

Saturday, January 25, 2014

  Actual Average Record
Temperature  
Mean Temperature 41 °F -  
Max Temperature 58 °F 10 °F 58 °F (2014)
Min Temperature 24 °F -9 °F -36 °F (2002)
Degree Days  
Heating Degree Days 24    
Moisture  
Dew Point 27 °F    
Average Humidity 54    
Maximum Humidity 70    
Minimum Humidity 29    
Precipitation  
Precipitation 0.00 in 0.02 in - ()
Sea Level Pressure  
Sea Level Pressure 30.27 in    
Wind  
Wind Speed 9 mph ()    
Max Wind Speed 21 mph    
Max Gust Speed 31 mph    
Visibility 14.6 miles    
Events Snow    
Averages and records for this station are not official NWS values.
T = Trace of Precipitation, MM = Missing Value Source: Averaged Metar Reports

Daily Weather History Graph

Daily Weather History Graph

Search for Another Location

Airport or City:

Trip Planner

Search our weather history database for the weather conditions in past years. The results will help you decide how hot, cold, wet, or windy it might be!

Date:

Astronomy

Jan. 25, 2014 Rise Set
Actual Time 8:32 AM PST 4:14 PM PST
Civil Twilight 7:45 AM PST 5:01 PM PST
Nautical Twilight 6:55 AM PST 5:51 PM PST
Astronomical Twilight 6:07 AM PST 6:38 PM PST
Moon 3:05 AM PST (1/25) 11:20 AM PST (1/25)
Length of Visible Light 9h 16m
Length of Day
7h 41m
Waning Crescent, 33% of the Moon is Illuminated
Jan 25
Waning Crescent
Jan 30
New
Feb 6
First Quarter
Feb 14
Full
Feb 22
Last Quarter

Hourly Weather History & Observations

Time (PST) Temp. Windchill Dew Point Humidity Pressure Visibility Wind Dir Wind Speed Gust Speed Precip Events Conditions
12:00 AM 44.6 °F 39.7 °F 30.2 °F 57% 29.95 in 15.0 mi West 9.2 mph - N/A   Mostly Cloudy
1:00 AM 57.2 °F - 32.0 °F 38% 29.95 in 15.0 mi West 11.5 mph 28.8 mph N/A   Mostly Cloudy
2:00 AM 57.2 °F - 32.0 °F 38% 29.97 in 15.0 mi West 18.4 mph 28.8 mph N/A   Overcast
3:00 AM 57.2 °F - 32.0 °F 38% 29.99 in 15.0 mi West 13.8 mph 27.6 mph N/A   Mostly Cloudy
4:00 AM 55 °F - 32 °F 29% 30.00 in 15 mi West 12.7 mph - -   Scattered Clouds
4:00 AM 55.4 °F - 32.0 °F 41% 30.00 in 15.0 mi West 12.7 mph 24.2 mph N/A   Partly Cloudy
5:00 AM 55.4 °F - 32.0 °F 41% 30.02 in 15.0 mi WNW 20.7 mph 31.1 mph N/A   Partly Cloudy
6:00 AM 53.6 °F - 32.0 °F 44% 30.06 in 15.0 mi WNW 15.0 mph 20.7 mph N/A   Scattered Clouds
7:00 AM 51.8 °F - 30.2 °F 44% 30.11 in 15.0 mi NW 11.5 mph 20.7 mph N/A   Mostly Cloudy
8:00 AM 46.4 °F 41.9 °F 30.2 °F 53% 30.18 in 15.0 mi NNE 9.2 mph - N/A   Mostly Cloudy
9:00 AM 42.8 °F 38.6 °F 30.2 °F 61% 30.24 in 30.0 mi North 6.9 mph - N/A   Mostly Cloudy
10:00 AM 42 °F - 31 °F 54% 30.26 in 28 mi NW 5.8 mph - -   Scattered Clouds
10:00 AM 41.0 °F 37.1 °F 30.2 °F 65% 30.26 in 30.0 mi NNW 5.8 mph - N/A   Mostly Cloudy
11:00 AM 42.8 °F 41.1 °F 30.2 °F 61% 30.28 in 30.0 mi WSW 3.5 mph - N/A   Mostly Cloudy
12:00 PM 44.6 °F - 30.2 °F 57% 30.29 in 30.0 mi NNW 2.3 mph - N/A   Mostly Cloudy
1:00 PM 44.6 °F - 30.2 °F 57% 30.27 in 30.0 mi Calm Calm - N/A   Mostly Cloudy
2:00 PM 42.8 °F 41.1 °F 30.2 °F 61% 30.28 in 30.0 mi NNE 3.5 mph - N/A   Mostly Cloudy
3:00 PM 42.8 °F 40.1 °F 30.2 °F 61% 30.29 in 30.0 mi North 4.6 mph - N/A   Mostly Cloudy
4:00 PM 41 °F - 28 °F 49% 30.31 in 28 mi North 6.9 mph - -   Scattered Clouds
4:00 PM 41.0 °F 36.4 °F 28.4 °F 61% 30.31 in 30.0 mi North 6.9 mph - N/A   Scattered Clouds
5:00 PM 37.4 °F 30.8 °F 28.4 °F 70% 30.34 in 20.0 mi North 9.2 mph - N/A   Scattered Clouds
6:00 PM 37.4 °F 30.8 °F 26.6 °F 65% 30.40 in 15.0 mi NNE 9.2 mph - N/A   Mostly Cloudy
7:00 PM 33.8 °F 23.2 °F 24.8 °F 70% 30.48 in 15.0 mi North 17.3 mph 24.2 mph N/A   Overcast
7:21 PM 32.0 °F 20.1 °F 23.0 °F 69% 30.51 in 7.0 mi North 19.6 mph 28.8 mph N/A Snow Light Snow
8:00 PM 30.2 °F 20.2 °F 21.2 °F 69% 30.54 in 10.0 mi North 12.7 mph 20.7 mph N/A Snow Light Snow
9:00 PM 26.6 °F 16.8 °F 17.6 °F 69% 30.59 in 15.0 mi NNW 10.4 mph - N/A   Overcast
10:00 PM 26 °F - 12 °F 43% 30.64 in 15 mi NW 10.4 mph - -   Partly Cloudy
10:00 PM 24.8 °F 14.6 °F 12.2 °F 59% 30.64 in 15.0 mi NW 10.4 mph - N/A   Overcast
11:00 PM 24.8 °F 14.6 °F 5.0 °F 43% 30.66 in 15.0 mi North 10.4 mph - N/A   Overcast